Nanticoke — WDC4353 — position and weather

sailwx.info

Track history (hours):
 
Tides and Currents Weather Stations Pressure Air Temp Water Temp Dewpoint Dewpoint Depression Visibility Wind Speed Wind Dir Waves Ship Positions

Nanticoke

Owner: Vane Line Bunkering, Baltimore, MD. More information available from US FCC via Universal Licensing System and Coast Guard Vessel Documentation Center.

Last reported at 2014-Oct-26 06:33 UTC. Time now 2014-Oct-26 07:06 UTC.
Position N 40°40' W 074°00'.

Length 34 m; draft 4.7 m.

Type: Towing. MMSI: 367023480.

Date/timePositionNaut miles runAvg speedWind from/ knotsBaromVisibWave heightAir tempDewpointWater temp
2014-Oct-26 06:33N 40°40' W 074°00'0 0.0
2014-Oct-26 05:33N 40°40' W 074°00'0 0.0
2014-Oct-26 04:33N 40°40' W 074°00'0 0.0
2014-Oct-26 03:33N 40°40' W 074°00'0 0.0
2014-Oct-26 02:33N 40°40' W 074°00'0 0.0
2014-Oct-26 01:33N 40°40' W 074°00'0 0.0
2014-Oct-26 00:33N 40°40' W 074°00'0 0.0
2014-Oct-25 23:33N 40°40' W 074°00'0 0.0
2014-Oct-25 22:33N 40°40' W 074°00'4 3.8
2014-Oct-25 21:33N 40°39' W 074°05'2 2.3
2014-Oct-25 20:33N 40°40' W 074°02'0 0.0
2014-Oct-25 19:33N 40°40' W 074°02'0 0.0
2014-Oct-25 18:33N 40°40' W 074°02'0 0.0
2014-Oct-25 17:33N 40°40' W 074°02'0 0.3
2014-Oct-25 16:32N 40°40' W 074°02'7 7.5
2014-Oct-25 15:33N 40°38' W 074°12'1 1.3
2014-Oct-25 14:34N 40°37' W 074°12'1 0.1
2014-Oct-24 19:32N 40°36' W 074°12'3 3.4
2014-Oct-24 18:33N 40°39' W 074°11'6 6.3
2014-Oct-24 17:33N 40°39' W 074°02'2 2.1
2014-Oct-24 16:33N 40°40' W 074°00'0 0.3
2014-Oct-24 15:33N 40°40' W 074°00'0 0.0
2014-Oct-24 14:33N 40°40' W 074°00'0 0.0
2014-Oct-24 13:33N 40°40' W 074°00'0 0.0
2014-Oct-24 12:33N 40°40' W 074°00'0 0.0
2014-Oct-24 11:33N 40°40' W 074°00'0 0.1
2014-Oct-24 10:33N 40°40' W 074°01'0 0.1
2014-Oct-24 09:34N 40°40' W 074°00'0 0.0
2014-Oct-24 08:33N 40°40' W 074°00'0 0.0
2014-Oct-24 07:33N 40°40' W 074°00'0 0.3
2014-Oct-24 06:33N 40°40' W 074°00'0 0.1
2014-Oct-24 05:33N 40°40' W 074°00'0 0.0
2014-Oct-24 04:33N 40°40' W 074°00'0 0.0
2014-Oct-24 03:33N 40°40' W 074°00'0 0.0
2014-Oct-24 02:33N 40°40' W 074°00'0 0.0
2014-Oct-24 01:33N 40°40' W 074°00'0 0.0
2014-Oct-24 00:33N 40°40' W 074°00'0 0.0
2014-Oct-23 23:33N 40°40' W 074°00'0 0.0
2014-Oct-23 22:33N 40°40' W 074°00'0 0.0
2014-Oct-23 21:33N 40°40' W 074°00'0 0.0
2014-Oct-23 20:33N 40°40' W 074°00'0 0.3
2014-Oct-23 19:33N 40°40' W 074°00'0 0.1
2014-Oct-23 18:33N 40°40' W 074°00'0 0.1
2014-Oct-23 17:33N 40°40' W 074°00'0 0.0
2014-Oct-23 16:33N 40°40' W 074°00'0 0.0
2014-Oct-23 15:33N 40°40' W 074°00'0 0.0
2014-Oct-23 14:33N 40°40' W 074°00'0 0.0
2014-Oct-23 13:33N 40°40' W 074°00'0 0.0
2014-Oct-23 12:33N 40°40' W 074°00'0 0.0
2014-Oct-23 11:33N 40°40' W 074°00'0 0.0
2014-Oct-23 10:33N 40°40' W 074°00'0 0.0
2014-Oct-23 09:33N 40°40' W 074°00'0 0.0
2014-Oct-23 08:33N 40°40' W 074°00'0 0.0
2014-Oct-23 07:33N 40°40' W 074°00'0 0.0
2014-Oct-23 06:34N 40°40' W 074°00'0 0.0
2014-Oct-23 05:33N 40°40' W 074°00'0 0.0
2014-Oct-23 04:33N 40°40' W 074°00'0 0.0
2014-Oct-23 03:33N 40°40' W 074°00'0 0.0
2014-Oct-23 02:33N 40°40' W 074°00'0 0.0
2014-Oct-23 01:33N 40°40' W 074°00'0 0.0
2014-Oct-23 00:33N 40°40' W 074°00'0 0.0
2014-Oct-22 23:34N 40°40' W 074°00'0 0.0
2014-Oct-22 22:33N 40°40' W 074°00'0 0.0
2014-Oct-22 21:34N 40°40' W 074°00'0 0.0
2014-Oct-22 20:33N 40°40' W 074°00'0 0.2
2014-Oct-22 19:33N 40°40' W 074°00'4 3.8
2014-Oct-22 18:33N 40°39' W 074°05'0 0.1
2014-Oct-22 17:33N 40°39' W 074°05'0 0.0
2014-Oct-22 16:33N 40°39' W 074°05'0 0.0
2014-Oct-22 15:33N 40°39' W 074°05'0 0.0
2014-Oct-22 14:33N 40°39' W 074°05'0 0.0
2014-Oct-22 13:33N 40°39' W 074°05'0 0.0
2014-Oct-22 12:33N 40°39' W 074°05'0 0.0
2014-Oct-22 11:33N 40°39' W 074°05'0 0.0
2014-Oct-22 10:34N 40°39' W 074°05'0 0.0
2014-Oct-22 09:33N 40°39' W 074°05'0 0.0
2014-Oct-22 08:33N 40°39' W 074°05'0 0.0
2014-Oct-22 07:34N 40°39' W 074°05'0 0.0
2014-Oct-22 06:33N 40°39' W 074°05'4 3.9
2014-Oct-22 05:33N 40°40' W 074°00'0 0.0
2014-Oct-22 04:33N 40°40' W 074°00'0 0.0
2014-Oct-22 03:34N 40°40' W 074°00'0 0.0
2014-Oct-22 02:33N 40°40' W 074°00'0 0.1
2014-Oct-22 01:34N 40°40' W 074°00'0 0.0
2014-Oct-22 00:33N 40°40' W 074°00'0 0.0
2014-Oct-21 23:33N 40°40' W 074°00'0 0.0
2014-Oct-21 22:33N 40°40' W 074°00'0 0.0
2014-Oct-21 21:34N 40°40' W 074°00'1 1.4
2014-Oct-21 20:34N 40°40' W 074°02'1 1.4
2014-Oct-21 19:33N 40°40' W 074°00'0 0.0
2014-Oct-21 18:33N 40°40' W 074°00'0 0.0
2014-Oct-21 17:33N 40°40' W 074°00'0 0.0
2014-Oct-21 16:34N 40°40' W 074°00'4 3.8
2014-Oct-21 15:33N 40°39' W 074°05'2 1.7
2014-Oct-21 14:34N 40°39' W 074°03'0 0.2
2014-Oct-21 13:33N 40°39' W 074°03'0 0.1
2014-Oct-21 12:33N 40°39' W 074°03'0 0.0
2014-Oct-21 11:33N 40°40' W 074°03'0 0.0
2014-Oct-21 10:33N 40°40' W 074°03'0 0.0
2014-Oct-21 09:34N 40°40' W 074°03'4 4.0
2014-Oct-21 08:33N 40°39' W 074°08'3 3.5
2014-Oct-21 07:33N 40°38' W 074°12'2 1.8
2014-Oct-21 06:33N 40°36' W 074°12'0 0.0
2014-Oct-21 05:34N 40°36' W 074°12'0 0.0
2014-Oct-21 04:30N 40°36' W 074°12'0 0.0
2014-Oct-21 03:33N 40°36' W 074°12'0 0.0
2014-Oct-21 02:33N 40°36' W 074°12'0 0.0
2014-Oct-21 01:33N 40°36' W 074°12'0 0.0
2014-Oct-21 00:33N 40°36' W 074°12'0 0.0
2014-Oct-20 23:33N 40°36' W 074°12'0 0.0
2014-Oct-20 22:33N 40°36' W 074°12'0 0.0
2014-Oct-20 21:33N 40°36' W 074°12'0 0.5
2014-Oct-20 20:33N 40°36' W 074°12'2 2.0
2014-Oct-20 19:33N 40°38' W 074°12'4 3.7
2014-Oct-20 18:33N 40°39' W 074°07'3 3.4
2014-Oct-20 17:33N 40°39' W 074°03'0 0.1
2014-Oct-20 16:34N 40°39' W 074°03'0 0.1
2014-Oct-20 15:34N 40°39' W 074°03'0 0.0
2014-Oct-20 14:34N 40°39' W 074°03'0 0.1
2014-Oct-20 13:34N 40°39' W 074°02'0 0.0
2014-Oct-20 12:34N 40°39' W 074°02'0 0.0
2014-Oct-20 11:33N 40°39' W 074°02'0 0.0
2014-Oct-20 10:34N 40°39' W 074°02'0 0.0
2014-Oct-20 09:34N 40°39' W 074°02'0 0.0
2014-Oct-20 08:34N 40°39' W 074°02'0 0.0
2014-Oct-20 07:33N 40°39' W 074°02'0 0.1
2014-Oct-20 06:34N 40°39' W 074°03'0 0.0
2014-Oct-20 05:34N 40°39' W 074°03'0 0.0
2014-Oct-20 04:34N 40°39' W 074°03'0 0.0
2014-Oct-20 03:34N 40°39' W 074°03'0 0.0
2014-Oct-20 02:33N 40°39' W 074°03'4 4.3
2014-Oct-20 01:34N 40°35' W 074°02'5 4.9
2014-Oct-20 00:33N 40°31' W 073°59'7 6.4
2014-Oct-19 23:24N 40°24' W 073°55'9 9.3
2014-Oct-19 22:23N 40°14' W 073°55'20 9.5
2014-Oct-19 20:15N 39°54' W 073°57'7 9.4
2014-Oct-19 19:33N 39°48' W 073°58'9 9.1
2014-Oct-19 18:33N 39°39' W 074°02'9 9.2
2014-Oct-19 17:33N 39°31' W 074°08'60 5.7
2014-Oct-19 07:07N 39°19' W 075°24'611.2
2014-Oct-19 06:33N 39°23' W 075°29'1010.1
2014-Oct-19 05:33N 39°33' W 075°33'10 9.8
2014-Oct-19 04:33N 39°43' W 075°31'1010.3
2014-Oct-19 03:33N 39°50' W 075°21'  
Track history (hours):
 
Tides and Currents Weather Stations Pressure Air Temp Water Temp Dewpoint Dewpoint Depression Visibility Wind Speed Wind Dir Waves Ship Positions

Nanticoke

Owner: Vane Line Bunkering, Baltimore, MD. More information available from US FCC via Universal Licensing System and Coast Guard Vessel Documentation Center.

Last reported at 2014-Oct-26 06:33 UTC. Time now 2014-Oct-26 07:06 UTC.
Position N 40°40' W 074°00'.

Length 34 m; draft 4.7 m.

Type: Towing. MMSI: 367023480.

Date/timePositionNaut miles runAvg speedWind from/ knotsBaromVisibWave heightAir tempDewpointWater temp
2014-Oct-26 06:33N 40°40' W 074°00'0 0.0
2014-Oct-26 05:33N 40°40' W 074°00'0 0.0
2014-Oct-26 04:33N 40°40' W 074°00'0 0.0
2014-Oct-26 03:33N 40°40' W 074°00'0 0.0
2014-Oct-26 02:33N 40°40' W 074°00'0 0.0
2014-Oct-26 01:33N 40°40' W 074°00'0 0.0
2014-Oct-26 00:33N 40°40' W 074°00'0 0.0
2014-Oct-25 23:33N 40°40' W 074°00'0 0.0
2014-Oct-25 22:33N 40°40' W 074°00'4 3.8
2014-Oct-25 21:33N 40°39' W 074°05'2 2.3
2014-Oct-25 20:33N 40°40' W 074°02'0 0.0
2014-Oct-25 19:33N 40°40' W 074°02'0 0.0
2014-Oct-25 18:33N 40°40' W 074°02'0 0.0
2014-Oct-25 17:33N 40°40' W 074°02'0 0.3
2014-Oct-25 16:32N 40°40' W 074°02'7 7.5
2014-Oct-25 15:33N 40°38' W 074°12'1 1.3
2014-Oct-25 14:34N 40°37' W 074°12'1 0.1
2014-Oct-24 19:32N 40°36' W 074°12'3 3.4
2014-Oct-24 18:33N 40°39' W 074°11'6 6.3
2014-Oct-24 17:33N 40°39' W 074°02'2 2.1
2014-Oct-24 16:33N 40°40' W 074°00'0 0.3
2014-Oct-24 15:33N 40°40' W 074°00'0 0.0
2014-Oct-24 14:33N 40°40' W 074°00'0 0.0
2014-Oct-24 13:33N 40°40' W 074°00'0 0.0
2014-Oct-24 12:33N 40°40' W 074°00'0 0.0
2014-Oct-24 11:33N 40°40' W 074°00'0 0.1
2014-Oct-24 10:33N 40°40' W 074°01'0 0.1
2014-Oct-24 09:34N 40°40' W 074°00'0 0.0
2014-Oct-24 08:33N 40°40' W 074°00'0 0.0
2014-Oct-24 07:33N 40°40' W 074°00'0 0.3
2014-Oct-24 06:33N 40°40' W 074°00'0 0.1
2014-Oct-24 05:33N 40°40' W 074°00'0 0.0
2014-Oct-24 04:33N 40°40' W 074°00'0 0.0
2014-Oct-24 03:33N 40°40' W 074°00'0 0.0
2014-Oct-24 02:33N 40°40' W 074°00'0 0.0
2014-Oct-24 01:33N 40°40' W 074°00'0 0.0
2014-Oct-24 00:33N 40°40' W 074°00'0 0.0
2014-Oct-23 23:33N 40°40' W 074°00'0 0.0
2014-Oct-23 22:33N 40°40' W 074°00'0 0.0
2014-Oct-23 21:33N 40°40' W 074°00'0 0.0
2014-Oct-23 20:33N 40°40' W 074°00'0 0.3
2014-Oct-23 19:33N 40°40' W 074°00'0 0.1
2014-Oct-23 18:33N 40°40' W 074°00'0 0.1
2014-Oct-23 17:33N 40°40' W 074°00'0 0.0
2014-Oct-23 16:33N 40°40' W 074°00'0 0.0
2014-Oct-23 15:33N 40°40' W 074°00'0 0.0
2014-Oct-23 14:33N 40°40' W 074°00'0 0.0
2014-Oct-23 13:33N 40°40' W 074°00'0 0.0
2014-Oct-23 12:33N 40°40' W 074°00'0 0.0
2014-Oct-23 11:33N 40°40' W 074°00'0 0.0
2014-Oct-23 10:33N 40°40' W 074°00'0 0.0
2014-Oct-23 09:33N 40°40' W 074°00'0 0.0
2014-Oct-23 08:33N 40°40' W 074°00'0 0.0
2014-Oct-23 07:33N 40°40' W 074°00'0 0.0
2014-Oct-23 06:34N 40°40' W 074°00'0 0.0
2014-Oct-23 05:33N 40°40' W 074°00'0 0.0
2014-Oct-23 04:33N 40°40' W 074°00'0 0.0
2014-Oct-23 03:33N 40°40' W 074°00'0 0.0
2014-Oct-23 02:33N 40°40' W 074°00'0 0.0
2014-Oct-23 01:33N 40°40' W 074°00'0 0.0
2014-Oct-23 00:33N 40°40' W 074°00'0 0.0
2014-Oct-22 23:34N 40°40' W 074°00'0 0.0
2014-Oct-22 22:33N 40°40' W 074°00'0 0.0
2014-Oct-22 21:34N 40°40' W 074°00'0 0.0
2014-Oct-22 20:33N 40°40' W 074°00'0 0.2
2014-Oct-22 19:33N 40°40' W 074°00'4 3.8
2014-Oct-22 18:33N 40°39' W 074°05'0 0.1
2014-Oct-22 17:33N 40°39' W 074°05'0 0.0
2014-Oct-22 16:33N 40°39' W 074°05'0 0.0
2014-Oct-22 15:33N 40°39' W 074°05'0 0.0
2014-Oct-22 14:33N 40°39' W 074°05'0 0.0
2014-Oct-22 13:33N 40°39' W 074°05'0 0.0
2014-Oct-22 12:33N 40°39' W 074°05'0 0.0
2014-Oct-22 11:33N 40°39' W 074°05'0 0.0
2014-Oct-22 10:34N 40°39' W 074°05'0 0.0
2014-Oct-22 09:33N 40°39' W 074°05'0 0.0
2014-Oct-22 08:33N 40°39' W 074°05'0 0.0
2014-Oct-22 07:34N 40°39' W 074°05'0 0.0
2014-Oct-22 06:33N 40°39' W 074°05'4 3.9
2014-Oct-22 05:33N 40°40' W 074°00'0 0.0
2014-Oct-22 04:33N 40°40' W 074°00'0 0.0
2014-Oct-22 03:34N 40°40' W 074°00'0 0.0
2014-Oct-22 02:33N 40°40' W 074°00'0 0.1
2014-Oct-22 01:34N 40°40' W 074°00'0 0.0
2014-Oct-22 00:33N 40°40' W 074°00'0 0.0
2014-Oct-21 23:33N 40°40' W 074°00'0 0.0
2014-Oct-21 22:33N 40°40' W 074°00'0 0.0
2014-Oct-21 21:34N 40°40' W 074°00'1 1.4
2014-Oct-21 20:34N 40°40' W 074°02'1 1.4
2014-Oct-21 19:33N 40°40' W 074°00'0 0.0
2014-Oct-21 18:33N 40°40' W 074°00'0 0.0
2014-Oct-21 17:33N 40°40' W 074°00'0 0.0
2014-Oct-21 16:34N 40°40' W 074°00'4 3.8
2014-Oct-21 15:33N 40°39' W 074°05'2 1.7
2014-Oct-21 14:34N 40°39' W 074°03'0 0.2
2014-Oct-21 13:33N 40°39' W 074°03'0 0.1
2014-Oct-21 12:33N 40°39' W 074°03'0 0.0
2014-Oct-21 11:33N 40°40' W 074°03'0 0.0
2014-Oct-21 10:33N 40°40' W 074°03'0 0.0
2014-Oct-21 09:34N 40°40' W 074°03'4 4.0
2014-Oct-21 08:33N 40°39' W 074°08'3 3.5
2014-Oct-21 07:33N 40°38' W 074°12'2 1.8
2014-Oct-21 06:33N 40°36' W 074°12'0 0.0
2014-Oct-21 05:34N 40°36' W 074°12'0 0.0
2014-Oct-21 04:30N 40°36' W 074°12'0 0.0
2014-Oct-21 03:33N 40°36' W 074°12'0 0.0
2014-Oct-21 02:33N 40°36' W 074°12'0 0.0
2014-Oct-21 01:33N 40°36' W 074°12'0 0.0
2014-Oct-21 00:33N 40°36' W 074°12'0 0.0
2014-Oct-20 23:33N 40°36' W 074°12'0 0.0
2014-Oct-20 22:33N 40°36' W 074°12'0 0.0
2014-Oct-20 21:33N 40°36' W 074°12'0 0.5
2014-Oct-20 20:33N 40°36' W 074°12'2 2.0
2014-Oct-20 19:33N 40°38' W 074°12'4 3.7
2014-Oct-20 18:33N 40°39' W 074°07'3 3.4
2014-Oct-20 17:33N 40°39' W 074°03'0 0.1
2014-Oct-20 16:34N 40°39' W 074°03'0 0.1
2014-Oct-20 15:34N 40°39' W 074°03'0 0.0
2014-Oct-20 14:34N 40°39' W 074°03'0 0.1
2014-Oct-20 13:34N 40°39' W 074°02'0 0.0
2014-Oct-20 12:34N 40°39' W 074°02'0 0.0
2014-Oct-20 11:33N 40°39' W 074°02'0 0.0
2014-Oct-20 10:34N 40°39' W 074°02'0 0.0
2014-Oct-20 09:34N 40°39' W 074°02'0 0.0
2014-Oct-20 08:34N 40°39' W 074°02'0 0.0
2014-Oct-20 07:33N 40°39' W 074°02'0 0.1
2014-Oct-20 06:34N 40°39' W 074°03'0 0.0
2014-Oct-20 05:34N 40°39' W 074°03'0 0.0
2014-Oct-20 04:34N 40°39' W 074°03'0 0.0
2014-Oct-20 03:34N 40°39' W 074°03'0 0.0
2014-Oct-20 02:33N 40°39' W 074°03'4 4.3
2014-Oct-20 01:34N 40°35' W 074°02'5 4.9
2014-Oct-20 00:33N 40°31' W 073°59'7 6.4
2014-Oct-19 23:24N 40°24' W 073°55'9 9.3
2014-Oct-19 22:23N 40°14' W 073°55'20 9.5
2014-Oct-19 20:15N 39°54' W 073°57'7 9.4
2014-Oct-19 19:33N 39°48' W 073°58'9 9.1
2014-Oct-19 18:33N 39°39' W 074°02'9 9.2
2014-Oct-19 17:33N 39°31' W 074°08'60 5.7
2014-Oct-19 07:07N 39°19' W 075°24'611.2
2014-Oct-19 06:33N 39°23' W 075°29'1010.1
2014-Oct-19 05:33N 39°33' W 075°33'10 9.8
2014-Oct-19 04:33N 39°43' W 075°31'1010.3
2014-Oct-19 03:33N 39°50' W 075°21'  

Dump ship's entire track history